Location: De Har
(53.3413°N, 6.6858°E)
Time: 09:05:59
(UTC+00:00)

COSMOS 2406 - Pass Details

Date: 22 April 2026
Orbit: 844 x 860 km, 71.0° (Epoch: 15 May)

Event Time Altitude Azimuth Distance (km) Brightness Sun altitude
Exits shadow 02:14:30 24° 232° (SW) 1,700 4.2 -15.9°
Maximum altitude 02:17:57 63° 307° (NW) 962 3.4 -15.5°
Drops below altitude 10° 02:23:41 10° 28° (NNE) 2,507 6.9 -15.0°
Sets 02:26:11 0° 32° (NNE) 3,446 8.1 -14.7°
